TimeEST,TemperatureF,Dew PointF,Humidity,Sea Level PressureIn,VisibilityMPH,Wind Direction,Wind SpeedMPH,Gust SpeedMPH,PrecipitationIn,Events,Conditions,WindDirDegrees,DateUTC
12:56 AM,39.9,35.1,83,30.12,10.0,Calm,Calm,-,N/A,,Clear,0,2013-02-21 05:56:00
1:56 AM,41.0,35.1,79,30.13,10.0,Calm,Calm,-,N/A,,Clear,0,2013-02-21 06:56:00
2:56 AM,39.9,37.0,89,30.12,10.0,Calm,Calm,-,N/A,,Clear,0,2013-02-21 07:56:00
3:56 AM,39.0,36.0,89,30.11,10.0,Calm,Calm,-,N/A,,Clear,0,2013-02-21 08:56:00
4:56 AM,37.0,36.0,96,30.12,10.0,Calm,Calm,-,N/A,,Clear,0,2013-02-21 09:56:00
5:56 AM,37.0,35.1,93,30.13,10.0,Calm,Calm,-,N/A,,Clear,0,2013-02-21 10:56:00
6:56 AM,36.0,35.1,97,30.14,10.0,Calm,Calm,-,N/A,,Clear,0,2013-02-21 11:56:00
7:56 AM,43.0,39.0,86,30.18,10.0,NNE,5.8,-,N/A,,Partly Cloudy,30,2013-02-21 12:56:00
8:56 AM,46.0,37.0,71,30.19,10.0,NE,5.8,-,N/A,,Partly Cloudy,40,2013-02-21 13:56:00
9:56 AM,51.1,35.1,54,30.20,10.0,NNE,4.6,-,N/A,,Scattered Clouds,30,2013-02-21 14:56:00
10:56 AM,55.9,35.1,45,30.20,10.0,NE,3.5,-,N/A,,Scattered Clouds,50,2013-02-21 15:56:00
11:56 AM,57.9,33.1,39,30.19,10.0,Calm,Calm,-,N/A,,Scattered Clouds,0,2013-02-21 16:56:00
12:56 PM,63.0,33.1,33,30.16,10.0,Variable,5.8,-,N/A,,Scattered Clouds,0,2013-02-21 17:56:00
1:56 PM,63.0,34.0,34,30.13,10.0,ESE,5.8,-,N/A,,Scattered Clouds,110,2013-02-21 18:56:00
2:56 PM,63.0,37.9,40,30.11,10.0,SSE,9.2,-,N/A,,Scattered Clouds,150,2013-02-21 19:56:00
3:56 PM,60.1,37.9,44,30.11,10.0,SE,8.1,-,N/A,,Scattered Clouds,130,2013-02-21 20:56:00
4:56 PM,57.9,37.9,47,30.11,10.0,South,10.4,-,N/A,,Mostly Cloudy,170,2013-02-21 21:56:00
5:56 PM,53.1,39.0,59,30.12,10.0,SSE,5.8,-,N/A,,Mostly Cloudy,150,2013-02-21 22:56:00
6:56 PM,51.1,41.0,68,30.13,10.0,East,5.8,-,N/A,,Mostly Cloudy,100,2013-02-21 23:56:00
7:56 PM,50.0,41.0,71,30.14,10.0,ESE,4.6,-,N/A,,Mostly Cloudy,110,2013-02-22 00:56:00
8:56 PM,50.0,43.0,77,30.15,10.0,ENE,4.6,-,N/A,,Scattered Clouds,70,2013-02-22 01:56:00
9:56 PM,48.9,44.1,83,30.15,10.0,East,4.6,-,N/A,,Scattered Clouds,80,2013-02-22 02:56:00
10:56 PM,48.0,43.0,83,30.17,10.0,ENE,5.8,-,N/A,,Scattered Clouds,70,2013-02-22 03:56:00
11:56 PM,50.0,45.0,83,30.18,10.0,NE,6.9,-,N/A,,Overcast,50,2013-02-22 04:56:00